Temperature
33 33 33 34 35 34 34 34 34 35 36 35 34 33 34 33 33 32 31 30 28 27 26 25 24 23 22 21 21 21 20 20 19 19 19 19 19 19 19 18 18 18 18 18
33 33 34 35 35 35 34 34 34 35 36 35 33 33 33 33 33 32 31 30 29 27 26 25 24 23 22 21 21 21 20 20 20 19 19 19 19 19 19 19 18 18 18 18
32 34 35 34 34 34 34 34 34 34 35 35 33 32 32 31 32 32 32 31 29 28 27 25 24 23 22 21 21 21 20 20 20 20 19 19 19 19 19 19 19 18 18 18
33 34 34 34 34 34 33 35 35 34 34 33 33 31 30 30 31 31 31 31 30 29 27 25 24 23 23 22 21 21 20 20 20 19 19 19 19 19 19 19 18 18 18 18
33 34 34 33 34 34 34 35 35 34 33 33 32 31 30 30 30 31 31 30 30 29 27 26 24 23 23 22 21 21 20 20 20 19 19 19 19 19 18 18 18 18 18 18
33 35 35 34 35 35 35 34 34 34 33 31 32 32 30 31 31 32 32 31 30 29 27 26 25 24 23 22 21 21 20 20 20 19 19 19 19 19 18 18 18 18 18 18
32 33 34 34 34 34 34 32 31 31 31 31 33 33 31 32 33 33 32 31 30 29 27 26 25 24 23 22 21 21 20 20 20 19 19 19 19 19 19 18 18 18 18 18
31 31 33 34 33 33 33 33 31 30 30 31 31 32 33 34 33 33 32 31 30 29 27 26 25 24 23 22 21 21 20 20 20 20 19 19 19 19 19 18 18 18 18 18
32 32 34 34 34 34 33 33 34 32 31 30 30 31 33 34 33 33 32 31 30 29 28 26 25 24 23 22 21 21 20 20 19 19 19 19 19 19 19 19 18 18 18 18
32 31 33 34 34 34 34 33 33 32 30 30 30 30 31 31 32 33 32 31 30 29 28 26 25 24 23 22 22 21 20 20 19 19 19 19 19 19 19 19 19 18 18 18
32 31 32 33 32 32 33 32 32 32 31 30 29 29 31 31 31 32 31 30 29 29 28 27 26 25 24 23 22 21 20 20 19 19 19 19 19 18 18 18 18 18 18 18
32 31 31 32 34 34 33 33 32 31 30 30 30 30 32 33 33 32 31 30 29 28 28 27 25 25 24 23 22 21 20 20 20 19 19 19 19 19 18 18 18 18 18 18
31 30 29 30 31 33 32 33 33 32 31 31 30 30 33 33 32 32 31 30 29 28 27 27 25 24 24 23 22 21 21 20 20 19 19 19 19 18 18 18 18 18 18 18
30 29 29 29 30 31 31 32 33 32 31 31 31 31 31 32 32 32 31 29 28 27 27 26 25 24 23 23 22 21 21 20 20 20 19 19 19 18 18 18 18 18 18 17
30 29 29 30 31 32 32 32 32 32 32 31 31 31 30 31 31 31 30 29 28 27 26 26 25 24 23 22 21 21 21 20 20 19 19 19 19 18 18 18 18 18 17 17
29 28 28 29 30 31 31 32 32 32 32 32 31 30 31 30 30 30 29 28 27 27 26 25 25 24 23 22 21 21 20 20 20 19 19 19 18 18 18 18 18 18 17 17
27 26 26 27 29 30 29 31 32 32 32 32 31 30 30 29 29 29 29 28 27 26 26 25 24 23 22 22 21 21 20 20 19 19 19 19 18 18 18 17 17 17 17 17
26 25 26 27 27 27 30 32 32 32 31 31 30 30 29 29 28 28 27 27 26 26 25 24 24 23 22 22 21 21 20 20 19 19 19 18 18 18 18 17 17 17 17 16
27 26 25 26 26 27 29 31 31 31 30 31 30 30 29 28 28 27 26 26 25 25 24 24 24 23 22 22 21 20 20 19 19 19 18 18 18 18 17 17 17 17 16 16
27 26 25 25 25 26 28 30 31 30 28 30 29 29 28 28 28 26 24 24 24 24 24 23 23 23 22 21 21 20 20 19 19 18 18 18 18 17 17 17 17 16 16 15
25 25 25 25 25 26 27 29 30 28 27 28 28 28 27 26 25 23 23 22 22 23 23 22 22 22 21 21 20 20 19 19 18 18 18 17 17 17 17 16 16 16 15 15
25 25 24 24 24 25 27 27 26 26 26 26 26 25 24 23 22 22 21 21 21 21 21 21 21 21 21 20 20 19 19 18 18 18 17 17 17 16 16 16 16 15 15 15
25 25 25 24 24 24 24 25 25 25 25 25 24 23 23 22 22 21 20 20 20 20 20 20 20 20 19 19 19 19 18 18 18 17 17 16 16 16 15 15 15 15 15 14
24 24 23 23 24 24 24 24 24 23 23 23 23 22 22 21 21 20 19 19 19 19 19 19 19 18 18 18 18 18 18 17 17 17 17 16 16 16 15 15 15 15 14 14
22 22 22 22 22 23 22 22 22 22 22 22 22 21 20 20 20 19 19 18 18 18 18 18 18 17 17 17 17 17 17 17 17 16 16 16 15 15 15 15 15 14 14 14
21 21 21 20 21 21 21 21 21 21 21 21 20 20 20 19 19 19 18 18 18 17 17 17 17 17 17 17 17 17 17 16 16 16 16 15 15 15 15 14 14 14 14 13
Wind_Speed
12 13 13 12 11 7 10 9 5 2 4 2 1 4 7 10 10 11 12 12 13 13 13 13 12 12 12 10 10 9 8 7 6 5 5 4 4 4 4 4 6 7 6 6
13 16 14 12 8 6 8 8 7 3 2 2 3 4 3 6 9 10 11 12 13 13 13 13 12 12 12 11 10 9 8 8 7 5 4 4 4 3 4 3 5 7 6 5
16 12 9 10 9 9 10 10 8 6 3 5 5 5 3 4 4 7 10 12 13 14 14 14 13 12 12 12 11 9 9 8 8 6 4 4 3 2 2 3 4 4 5 5
15 13 10 10 11 11 11 10 9 8 8 7 7 5 4 6 7 9 8 9 11 12 14 15 14 12 12 12 11 9 9 8 7 6 5 5 4 4 3 3 4 4 4 4
13 13 12 12 12 12 11 9 9 9 10 9 9 6 4 8 8 9 9 10 11 12 13 14 14 12 11 11 11 10 8 7 7 6 6 5 4 3 2 2 3 4 4 4
16 12 11 12 12 12 10 9 9 10 10 12 11 8 4 5 8 9 11 11 11 12 12 12 12 11 10 10 9 10 9 7 7 7 6 5 4 3 2 2 3 3 3 3
16 15 12 11 12 12 12 10 8 9 9 10 8 7 4 7 7 8 9 11 12 12 12 12 12 11 10 10 10 10 9 8 8 7 6 6 5 4 3 3 3 3 2 3
16 15 16 13 14 13 13 14 12 9 8 5 6 5 4 9 9 9 10 11 12 13 13 13 12 11 10 11 10 10 10 8 8 7 6 5 5 4 3 3 2 2 2 2
12 14 15 15 15 16 15 15 16 13 13 10 6 5 4 9 10 10 11 12 12 12 13 13 13 12 11 10 10 10 9 8 7 7 6 5 5 4 3 3 2 2 2 2
15 12 12 13 13 16 17 14 11 11 10 10 8 9 5 8 7 10 11 12 12 12 13 12 12 12 11 10 9 9 9 8 6 7 6 6 6 5 4 3 3 1 1 0
15 13 12 12 14 15 15 16 12 10 9 10 8 5 2 9 8 8 9 10 11 12 13 13 12 12 11 11 11 10 9 8 7 7 6 5 5 5 4 3 2 1 0 0
12 11 13 13 12 13 15 16 15 11 9 9 9 4 5 6 7 9 10 10 10 10 11 12 12 11 10 10 11 10 10 9 8 7 6 5 4 4 4 4 3 2 1 0
8 10 12 14 13 15 15 15 15 14 11 11 11 5 5 4 7 8 10 11 10 9 9 11 11 10 9 9 9 10 10 9 9 8 7 6 5 5 4 3 3 2 2 1
6 10 14 16 12 12 15 16 16 16 14 13 11 6 3 3 4 6 8 11 10 9 8 9 9 9 8 8 8 8 8 8 8 8 8 7 6 5 4 4 3 2 2 2
8 12 15 18 17 15 14 16 18 17 16 14 9 7 5 3 3 5 7 10 11 11 10 10 10 9 8 9 8 8 8 8 7 7 7 6 6 5 4 4 3 3 3 3
7 11 14 17 19 18 17 18 18 17 16 16 11 7 4 2 5 5 6 8 8 10 11 10 11 11 10 9 9 8 8 8 8 7 7 7 6 5 4 4 3 3 3 2
8 8 12 15 17 18 20 17 15 14 14 12 9 5 2 3 4 5 4 5 6 7 7 8 9 10 9 10 9 9 8 8 8 7 7 7 6 6 5 4 4 3 3 3
9 8 9 14 15 19 15 13 12 11 8 6 3 2 2 2 4 6 5 4 3 3 5 6 7 8 10 10 10 9 9 8 8 7 7 6 6 6 5 4 3 3 2 2
12 9 10 13 16 17 14 11 12 10 7 5 4 3 3 3 5 6 6 5 3 2 2 3 6 7 8 10 10 9 9 8 8 7 7 6 6 5 5 4 3 3 3 2
14 10 12 13 15 15 11 9 8 9 8 3 2 2 2 3 2 2 6 5 4 3 3 2 3 6 7 8 9 9 9 8 7 7 6 5 5 5 4 4 3 3 3 2
15 14 16 16 16 12 9 9 9 10 4 1 2 3 3 3 5 7 7 6 5 5 4 3 3 5 6 7 8 8 7 7 6 7 6 6 5 4 4 3 3 4 3 3
14 15 14 15 16 11 5 5 3 1 5 5 6 7 9 9 10 8 7 6 7 7 6 5 5 5 5 6 7 7 6 6 7 7 7 6 5 4 5 4 3 3 3 3
9 7 7 8 7 1 4 4 6 6 6 7 8 9 9 9 8 8 7 6 6 7 6 6 6 6 6 5 5 5 5 7 7 7 6 6 5 3 3 4 3 3 3 3
5 3 4 4 3 1 2 5 6 6 6 7 8 8 8 8 8 7 6 6 6 6 6 6 6 6 5 5 5 4 5 6 7 7 6 5 4 4 3 2 2 2 1 1
5 3 3 3 1 2 3 5 5 5 6 7 7 7 7 7 7 7 6 6 6 5 5 5 5 4 5 5 4 4 4 5 6 6 6 6 4 4 4 3 2 2 2 1
5 5 4 4 1 1 2 3 4 5 6 7 7 7 7 6 6 6 5 5 4 4 4 5 5 4 4 5 4 4 4 3 3 4 4 4 4 4 5 4 3 6 4 5
Wind_Direction
231 237 245 249 247 254 284 291 278 207 137 216 241 205 176 168 171 171 170 166 166 169 166 159 163 162 159 161 165 170 175 166 170 172 181 191 199 193 195 189 186 182 196 197
237 235 246 262 274 273 271 272 274 253 165 255 255 264 218 182 182 176 169 170 172 169 164 160 165 166 165 167 169 173 178 172 181 182 184 197 199 200 197 189 169 181 189 199
239 239 236 245 254 256 260 263 275 283 264 246 252 257 200 250 213 193 178 175 172 172 168 165 169 172 172 172 176 181 179 176 184 183 180 193 185 218 199 176 179 188 192 206
241 242 242 241 244 245 254 263 274 276 273 272 264 261 202 219 215 208 186 170 170 168 165 166 172 176 178 175 177 176 172 175 178 181 192 195 194 202 210 192 180 184 198 205
239 236 236 240 244 248 262 279 281 272 271 274 269 269 220 195 204 203 184 177 169 163 164 165 170 174 173 172 171 169 166 172 173 183 194 197 207 206 217 199 174 188 193 201
254 249 236 239 242 250 262 268 270 265 263 260 255 256 207 176 178 179 169 161 154 153 152 154 161 162 166 166 163 161 164 171 174 185 196 199 202 198 208 203 190 199 195 202
239 244 236 240 244 235 239 247 249 248 244 254 259 251 185 173 170 151 151 153 152 152 151 154 158 160 163 164 163 162 165 172 179 187 195 194 198 194 200 214 212 211 210 198
225 230 224 223 234 239 231 238 244 257 269 285 284 271 157 142 134 140 150 149 151 155 156 158 160 160 161 165 166 165 166 172 179 183 188 189 188 193 201 205 215 216 228 199
238 233 217 213 222 239 239 240 250 256 263 267 261 266 181 142 148 153 151 151 153 156 157 159 160 160 161 165 166 165 163 172 178 178 177 178 179 186 188 190 206 218 227 220
260 271 237 211 213 228 242 248 256 257 267 273 253 249 215 152 163 155 153 156 155 156 156 160 159 160 163 164 162 162 163 172 172 171 177 179 179 180 184 191 196 218 220 248
247 262 255 221 213 226 229 243 255 270 266 267 267 273 178 158 174 161 153 153 158 164 164 160 158 159 161 160 161 162 161 165 169 171 168 169 167 170 169 172 171 168 141 181
233 250 258 242 222 234 241 236 240 249 261 271 274 261 214 177 158 157 154 157 155 159 160 156 155 153 158 161 160 158 160 166 166 164 158 158 155 156 163 161 148 143 159 202
239 243 249 248 235 221 237 239 241 245 253 257 262 238 196 164 155 157 153 146 145 155 158 155 152 153 158 160 156 157 163 162 162 158 157 153 157 157 157 151 145 148 146 161
254 243 247 246 242 228 230 239 242 241 243 247 249 227 213 212 175 147 137 137 146 157 162 159 152 152 154 151 147 152 154 152 152 152 155 153 158 154 153 146 140 139 143 151
250 245 252 261 268 268 254 239 238 239 246 256 252 229 227 204 154 135 136 143 155 161 170 167 159 155 154 149 149 153 154 147 145 150 153 151 150 146 142 140 144 142 149 152
241 258 258 257 259 261 262 251 238 236 241 247 249 249 232 115 101 113 128 139 157 166 173 172 165 162 162 158 157 156 154 150 148 156 154 147 151 149 146 147 138 132 131 126
238 246 259 257 257 258 253 253 248 243 240 244 246 228 177 122 129 129 121 134 154 161 164 165 168 168 165 165 161 160 155 154 156 154 148 150 152 149 153 155 146 148 144 142
246 248 252 256 258 252 251 255 253 250 247 238 222 163 150 138 105 87 91 93 103 139 147 167 173 170 169 169 165 158 159 162 159 156 155 153 153 147 143 141 144 146 137 141
233 233 246 252 250 247 251 250 252 248 242 245 215 177 163 138 134 90 64 67 58 78 127 156 170 168 167 167 160 159 162 161 162 163 159 157 154 148 147 149 152 150 144 145
226 218 235 247 250 251 254 253 258 250 226 227 170 138 142 156 195 102 61 62 48 45 75 99 148 148 148 153 155 158 162 161 161 156 151 145 146 149 152 148 152 154 158 160
217 215 226 242 249 249 278 290 259 241 232 142 121 107 105 68 68 79 73 66 58 60 70 74 94 122 127 138 148 154 157 159 151 139 136 138 135 135 137 143 153 158 163 163
228 220 221 233 243 246 297 271 263 57 58 71 76 82 87 88 89 87 80 71 65 64 61 67 82 97 108 130 144 152 151 139 132 132 135 135 136 150 146 143 150 155 169 174
245 251 241 236 237 219 16 68 79 87 81 71 73 83 94 96 96 94 88 77 72 70 66 63 78 87 94 105 121 141 136 133 135 135 138 138 131 121 133 144 150 160 175 181
251 278 278 264 192 99 79 84 70 69 75 75 79 86 87 92 92 93 88 79 76 71 72 70 76 87 92 98 102 106 122 133 136 138 137 136 138 140 137 139 152 165 181 180
293 299 270 252 207 123 68 68 74 73 79 81 78 80 86 89 88 90 94 86 79 73 76 80 81 92 101 99 97 106 118 133 138 141 146 147 152 146 132 120 83 103 72 100
308 298 273 270 300 156 109 84 82 76 78 86 88 86 85 90 92 90 91 97 97 94 90 92 90 98 105 106 102 107 122 128 140 154 159 157 156 157 153 143 120 69 87 88
Height
1494 1495 1494 1487 1483 1485 1486 1487 1488 1482 1478 1484 1490 1492 1491 1494 1498 1503 1508 1512 1518 1522 1526 1530 1533 1536 1538 1539 1541 1543 1545 1547 1548 1550 1552 1554 1556 1557 1558 1559 1560 1560 1562 1563
1493 1493 1486 1481 1480 1483 1486 1490 1488 1481 1477 1484 1490 1492 1490 1492 1496 1499 1504 1510 1515 1520 1524 1528 1531 1534 1536 1538 1540 1542 1543 1545 1547 1549 1551 1552 1555 1556 1557 1558 1559 1559 1560 1561
1493 1486 1482 1484 1486 1489 1488 1489 1487 1486 1481 1482 1490 1498 1495 1494 1497 1499 1501 1506 1511 1516 1521 1525 1529 1532 1535 1536 1538 1540 1542 1544 1546 1548 1550 1552 1553 1555 1556 1556 1557 1558 1559 1560
1486 1481 1482 1485 1487 1488 1493 1481 1482 1484 1491 1495 1493 1512 1502 1497 1497 1498 1500 1504 1508 1513 1518 1523 1527 1530 1533 1535 1537 1539 1540 1542 1544 1546 1548 1550 1551 1553 1554 1555 1556 1556 1557 1558
1485 1481 1483 1488 1486 1484 1485 1479 1481 1484 1490 1498 1496 1506 1508 1496 1501 1496 1498 1502 1506 1511 1516 1521 1524 1528 1531 1534 1536 1537 1539 1541 1543 1545 1546 1548 1550 1551 1552 1553 1554 1555 1556 1556
1481 1477 1479 1481 1481 1481 1481 1483 1485 1486 1491 1509 1497 1502 1508 1495 1494 1491 1494 1499 1505 1510 1515 1519 1523 1527 1530 1533 1535 1536 1537 1539 1541 1543 1545 1546 1548 1549 1550 1551 1553 1553 1554 1554
1488 1480 1477 1479 1483 1482 1484 1496 1511 1514 1513 1511 1490 1494 1497 1485 1482 1485 1491 1497 1503 1508 1513 1518 1522 1525 1528 1531 1533 1534 1536 1538 1540 1541 1543 1544 1546 1547 1549 1549 1551 1551 1552 1553
1494 1492 1478 1478 1483 1486 1486 1491 1513 1525 1520 1510 1497 1498 1486 1477 1481 1485 1490 1496 1502 1507 1512 1516 1520 1524 1527 1529 1531 1533 1534 1536 1537 1539 1541 1542 1544 1545 1547 1548 1549 1550 1551 1551
1484 1486 1470 1472 1476 1480 1486 1488 1483 1497 1503 1512 1507 1496 1482 1476 1480 1484 1489 1495 1500 1505 1510 1515 1518 1522 1525 1527 1529 1531 1532 1534 1536 1537 1539 1540 1542 1543 1544 1546 1547 1548 1549 1550
1476 1484 1470 1469 1473 1476 1478 1480 1486 1495 1513 1520 1511 1504 1494 1487 1484 1483 1487 1493 1499 1504 1509 1513 1517 1520 1523 1525 1527 1529 1531 1532 1534 1535 1537 1538 1540 1541 1542 1544 1545 1546 1547 1548
1474 1485 1478 1472 1478 1482 1482 1484 1486 1488 1493 1511 1520 1512 1480 1482 1481 1483 1487 1492 1498 1503 1507 1510 1515 1518 1521 1523 1526 1527 1529 1530 1532 1534 1535 1537 1538 1539 1541 1542 1543 1544 1545 1546
1475 1480 1485 1476 1468 1471 1474 1479 1483 1499 1500 1498 1506 1505 1478 1476 1478 1481 1487 1492 1497 1502 1505 1509 1514 1517 1520 1522 1524 1526 1527 1529 1530 1532 1534 1536 1537 1538 1539 1540 1542 1543 1543 1544
1476 1483 1496 1492 1482 1474 1476 1474 1476 1480 1487 1495 1503 1501 1474 1476 1479 1481 1485 1491 1496 1502 1506 1510 1513 1516 1519 1521 1523 1525 1526 1528 1529 1531 1533 1534 1536 1537 1538 1539 1540 1541 1541 1542
1478 1483 1491 1496 1486 1475 1478 1476 1473 1479 1489 1492 1491 1490 1482 1479 1479 1481 1485 1490 1497 1501 1505 1509 1513 1515 1518 1520 1522 1524 1525 1527 1528 1530 1532 1533 1534 1536 1537 1537 1538 1539 1540 1540
1479 1485 1484 1480 1473 1470 1472 1472 1472 1475 1478 1485 1483 1483 1484 1479 1480 1483 1486 1491 1496 1500 1505 1508 1511 1514 1517 1519 1521 1523 1525 1526 1528 1529 1531 1532 1533 1534 1535 1536 1537 1537 1538 1538
1481 1485 1485 1484 1475 1472 1473 1469 1468 1470 1471 1474 1477 1482 1478 1479 1482 1486 1488 1491 1495 1499 1503 1506 1509 1512 1515 1517 1519 1522 1524 1526 1527 1529 1530 1531 1533 1533 1534 1535 1536 1536 1536 1536
1483 1489 1493 1490 1478 1476 1481 1469 1466 1466 1465 1469 1478 1480 1479 1481 1484 1486 1488 1491 1495 1498 1502 1505 1508 1510 1512 1515 1517 1520 1523 1525 1527 1528 1529 1530 1531 1532 1533 1534 1534 1534 1534 1535
1486 1490 1492 1491 1489 1498 1475 1460 1460 1464 1466 1467 1471 1475 1478 1482 1485 1487 1489 1492 1495 1498 1500 1503 1506 1508 1510 1513 1516 1519 1521 1524 1525 1526 1527 1528 1530 1530 1531 1532 1532 1533 1533 1533
1481 1487 1492 1492 1492 1484 1470 1462 1462 1466 1470 1468 1470 1475 1478 1481 1484 1488 1491 1493 1496 1498 1500 1502 1504 1506 1508 1512 1515 1518 1520 1522 1523 1525 1525 1527 1528 1528 1529 1530 1530 1530 1531 1531
1477 1481 1490 1490 1494 1493 1475 1463 1462 1466 1474 1470 1472 1475 1479 1481 1485 1490 1493 1494 1496 1498 1499 1500 1502 1504 1507 1510 1513 1515 1518 1520 1521 1523 1524 1525 1526 1527 1527 1527 1528 1529 1529 1529
1479 1482 1487 1490 1490 1482 1470 1465 1464 1478 1480 1472 1474 1478 1480 1484 1488 1493 1494 1496 1497 1498 1499 1501 1502 1504 1506 1509 1511 1514 1516 1518 1519 1521 1522 1524 1524 1525 1525 1526 1526 1527 1527 1528
1474 1478 1483 1485 1489 1487 1472 1469 1472 1476 1474 1475 1477 1480 1484 1488 1491 1494 1496 1497 1498 1498 1500 1501 1502 1504 1506 1508 1511 1513 1515 1517 1518 1520 1521 1522 1523 1524 1524 1524 1524 1525 1526 1526
1470 1472 1473 1477 1480 1477 1475 1474 1475 1476 1478 1479 1481 1483 1486 1489 1492 1495 1497 1498 1499 1500 1501 1501 1503 1504 1506 1508 1510 1512 1514 1515 1517 1519 1520 1520 1521 1522 1523 1523 1523 1524 1525 1525
1470 1471 1473 1475 1475 1475 1476 1476 1477 1479 1481 1483 1484 1486 1488 1491 1493 1496 1498 1499 1500 1501 1502 1503 1504 1505 1506 1508 1510 1512 1513 1514 1515 1517 1518 1519 1520 1520 1521 1522 1523 1523 1524 1524
1475 1474 1476 1478 1477 1477 1479 1479 1481 1482 1484 1485 1487 1489 1491 1493 1495 1497 1499 1501 1502 1503 1504 1504 1505 1506 1507 1508 1509 1510 1512 1513 1515 1516 1517 1518 1519 1519 1520 1521 1522 1522 1523 1523
1479 1479 1479 1481 1479 1479 1481 1481 1483 1485 1486 1487 1489 1491 1493 1494 1497 1498 1500 1502 1503 1504 1505 1505 1506 1507 1508 1508 1509 1510 1511 1513 1514 1516 1516 1517 1517 1518 1519 1520 1521 1521 1522 1522